Location: *
(38.3914°N, 75.0697°W)
Time: 15:39:20
(UTC+00:00)

Envisat - Visible Passes

Search period start: 08 March 2021 00:00
Search period end: 18 March 2021 00:00
Orbit: 764 x 766 km, 98.1° (Epoch: 07 March)

Date Brightness Start Highest point End Pass type
(mag) Time Alt. Az. Time Alt. Az. Time Alt. Az.
08 Mar 4.0 10:17:21 10° NNE 10:22:18 51° E 10:27:13 10° S visible
09 Mar 5.5 09:41:22 10° NE 09:45:17 22° E 09:49:12 10° SE visible
10 Mar 3.0 10:42:36 10° NNE 10:47:43 89° W 10:52:47 10° SSW visible
11 Mar 4.5 10:06:05 10° NNE 10:10:51 39° E 10:15:34 10° SSE visible
12 Mar 5.9 09:30:27 10° NE 09:33:46 17° E 09:37:03 10° SE visible
13 Mar 3.4 10:31:12 10° NNE 10:36:17 72° ESE 10:41:21 10° S visible
14 Mar 5.0 09:54:52 10° NE 09:59:21 31° E 10:03:48 10° SSE visible
15 Mar 6.1 09:19:49 10° ENE 09:22:13 13° E 09:24:36 10° ESE visible
16 Mar 3.8 10:19:50 10° NNE 10:24:50 55° E 10:29:48 10° S visible
17 Mar 5.4 09:43:45 10° NE 09:47:51 24° E 09:51:55 10° SSE visible
